Погода в Пролетарском

Россия / Кабардино-Балкарская Республика     43°50′43″N   44°02′32″E
темп.,
°C
ветер,
м/с
пор.,
м/с
влажн.,
%
обл.,
%
осадки,
мм/ч
давл.,
гПа
погр.,
м
25 февраля, чт
чт2500:00−12в358253 0.0 1039294
03:00−12всв248740 0.0 1037194
06:00−12всв238896 0.0 1037187
09:00−10в228298 0.0 1036265
12:00−7в227256 0.0 1035374
15:00−4вюв216728 0.0 1033380
18:00−6ю22799 0.0 103321
21:00−4ююз338352 0.0 103244
26 февраля, пт
пт2600:00−1ююз2274100 0.0 103024
03:00−1юз2271100 0.0 102922
06:00−1зюз2374100 0.0 102924
09:00+1юз3577100 0.0 1028120
12:00+5з1273100 0.0 1027199
15:00+7юз2273100 0.0 1025111
18:00+3юз2378100 0.0 102622
21:00+2зюз127374 0.0 102622
27 февраля, сб
сб2700:00+2юз237381 0.0 102424
03:00+2ююз237178 0.0 102330
06:00+2ююз346991 0.0 102238
09:00+5юз126469 0.0 102161
12:00+9ююв11550 0.0 1018226
15:00+10ю34660 0.0 1016294
18:00+5ююз33772 0.0 101722
21:00+4юз337844 0.0 101747
28 февраля, вс
вс2800:00+3ююз237712 0.0 101624
03:00+2юз12786 0.0 101522
06:00+2юз01780 0.0 101422
09:00+5ссв478313 0.0 1014400
12:00+4ссз5992100 0.1 1014505
15:00+4сз2594100 0.7 1016426
18:00+3ссз2498100 0.9 1017195
21:00+2ссз3598100 1.9 1019261
1 марта, пн
пн100:00+2сз2497100 0.6 1020261
03:00+2зсз2498100 0.8 1021248
06:00+1юз2297100 0.0 102351
09:00+3сз257198 0.1 1024813
12:00+5ссз455650 0.0 10241161
15:00+5сз455963 0.0 10241142
18:00+3ссз247194 0.0 1026122
21:00+2зюз017696 0.0 102822